BXS2543 OOKB-OMAD

Flight info

Callsign BXS2543
Flight time 0h 47m
Altitude 22000
Route 2617N05613E 2615N05610E 2554N05600E DCT 2536N05539E DCT 2424N05438E
Aircraft TBM8/L-SDFGRWY/S

Departure

Time 2026-05-04 17:06
Airport Khasab Airport (OOKB)

Arrival

Time 2026-05-04 17:54
Airport Al Bateen Executive Airport (OMAD)
Time Latitude Longitude Altitude Speed Heading
2026-05-04 16:53 26.16472 56.23638 124 ft 0 kts 283°
2026-05-04 17:02 26.16493 56.23613 99 ft 8 kts 338°
2026-05-04 17:03 26.16496 56.23658 121 ft 5 kts 156°
2026-05-04 17:03 26.16426 56.23713 124 ft 10 kts 125°
2026-05-04 17:03 26.16245 56.23798 126 ft 28 kts 191°
2026-05-04 17:04 26.15941 56.23712 134 ft 19 kts 193°
2026-05-04 17:04 26.15859 56.23711 132 ft 0 kts 15°
2026-05-04 17:05 26.16254 56.23809 127 ft 84 kts 12°
2026-05-04 17:05 26.17935 56.24259 334 ft 157 kts 14°
2026-05-04 17:06 26.20243 56.24882 1016 ft 180 kts 13°
2026-05-04 17:06 26.21486 56.25216 1375 ft 186 kts 12°
2026-05-04 17:07 26.24026 56.25898 2178 ft 188 kts 12°
2026-05-04 17:07 26.24899 56.26053 2442 ft 188 kts
2026-05-04 17:07 26.26727 56.26301 2523 ft 211 kts
2026-05-04 17:07 26.28167 56.25897 2526 ft 221 kts 326°
2026-05-04 17:08 26.29157 56.24601 2535 ft 224 kts 291°
2026-05-04 17:08 26.28585 56.21355 2534 ft 228 kts 227°
2026-05-04 17:08 26.27444 56.20121 2531 ft 229 kts 225°
2026-05-04 17:09 26.26428 56.18756 2534 ft 229 kts 237°
2026-05-04 17:09 26.25630 56.17226 2535 ft 228 kts 235°
2026-05-04 17:09 26.24476 56.16028 2538 ft 229 kts 214°
2026-05-04 17:10 26.21562 56.14597 2532 ft 230 kts 204°
2026-05-04 17:10 26.17145 56.12612 2533 ft 229 kts 202°
2026-05-04 17:11 26.15667 56.11953 2538 ft 229 kts 202°
2026-05-04 17:11 26.14185 56.11289 2538 ft 229 kts 202°
2026-05-04 17:11 26.11216 56.09965 2536 ft 230 kts 202°
2026-05-04 17:12 26.09733 56.09305 2534 ft 229 kts 202°
2026-05-04 17:12 26.06771 56.07985 2538 ft 229 kts 202°
2026-05-04 17:13 26.02355 56.06019 2550 ft 229 kts 202°
2026-05-04 17:14 25.97921 56.04046 2552 ft 229 kts 202°
2026-05-04 17:14 25.96445 56.03390 2558 ft 229 kts 202°
2026-05-04 17:14 25.93483 56.02074 2561 ft 229 kts 202°
2026-05-04 17:15 25.92003 56.01416 2576 ft 229 kts 202°
2026-05-04 17:15 25.89157 55.99876 2578 ft 228 kts 221°
2026-05-04 17:16 25.87032 55.97270 2582 ft 227 kts 228°
2026-05-04 17:16 25.83868 55.93340 2584 ft 228 kts 229°
2026-05-04 17:17 25.82816 55.92030 2584 ft 227 kts 229°
2026-05-04 17:17 25.79664 55.88107 2586 ft 226 kts 229°
2026-05-04 17:18 25.78613 55.86802 2588 ft 227 kts 229°
2026-05-04 17:18 25.76511 55.84188 2588 ft 227 kts 229°
2026-05-04 17:19 25.74425 55.81598 2588 ft 226 kts 229°
2026-05-04 17:19 25.72327 55.78992 2588 ft 226 kts 229°
2026-05-04 17:20 25.70232 55.76392 2585 ft 226 kts 229°
2026-05-04 17:20 25.68133 55.73798 2594 ft 227 kts 229°
2026-05-04 17:20 25.67080 55.72486 2581 ft 227 kts 230°
2026-05-04 17:21 25.64973 55.69866 2580 ft 227 kts 229°
2026-05-04 17:21 25.62886 55.67281 2603 ft 227 kts 229°
2026-05-04 17:22 25.61812 55.65972 2514 ft 230 kts 229°
2026-05-04 17:22 25.60747 55.64647 2523 ft 231 kts 228°
2026-05-04 17:23 25.56950 55.61353 2473 ft 232 kts 219°
2026-05-04 17:23 25.55686 55.60265 2488 ft 228 kts 219°
2026-05-04 17:23 25.53148 55.58102 2482 ft 232 kts 218°
2026-05-04 17:24 25.51859 55.57002 2499 ft 235 kts 219°
2026-05-04 17:24 25.47961 55.53684 2506 ft 235 kts 219°
2026-05-04 17:25 25.46656 55.52575 2485 ft 236 kts 219°
2026-05-04 17:25 25.44072 55.50382 2490 ft 234 kts 219°
2026-05-04 17:26 25.41498 55.48184 2509 ft 234 kts 218°
2026-05-04 17:26 25.37593 55.44864 2500 ft 236 kts 219°
2026-05-04 17:27 25.34986 55.42652 2511 ft 237 kts 220°
2026-05-04 17:27 25.32363 55.40450 2480 ft 236 kts 218°
2026-05-04 17:28 25.29759 55.38225 2473 ft 236 kts 219°
2026-05-04 17:29 25.25870 55.34918 2475 ft 236 kts 219°
2026-05-04 17:29 25.21949 55.31598 2478 ft 239 kts 218°
2026-05-04 17:30 25.18016 55.28267 2480 ft 237 kts 220°
2026-05-04 17:31 25.15405 55.26079 2481 ft 235 kts 218°
2026-05-04 17:31 25.11553 55.22798 2477 ft 231 kts 219°
2026-05-04 17:32 25.09001 55.20663 2521 ft 231 kts 220°
2026-05-04 17:33 25.05187 55.17430 2520 ft 236 kts 219°
2026-05-04 17:33 25.03877 55.16332 2533 ft 238 kts 219°
2026-05-04 17:34 24.99972 55.13036 2539 ft 232 kts 219°
2026-05-04 17:34 24.98688 55.11951 2526 ft 231 kts 219°
2026-05-04 17:35 24.94891 55.08759 2526 ft 228 kts 219°
2026-05-04 17:35 24.92361 55.06619 2539 ft 228 kts 219°
2026-05-04 17:35 24.91102 55.05579 2527 ft 229 kts 219°
2026-05-04 17:36 24.89835 55.04509 2519 ft 229 kts 220°
2026-05-04 17:36 24.88579 55.03447 2525 ft 227 kts 220°
2026-05-04 17:36 24.87323 55.02389 2528 ft 228 kts 219°
2026-05-04 17:36 24.86064 55.01324 2536 ft 229 kts 220°
2026-05-04 17:37 24.84799 55.00242 2520 ft 229 kts 219°
2026-05-04 17:37 24.83515 54.99212 2520 ft 229 kts 218°
2026-05-04 17:37 24.82260 54.98154 2515 ft 225 kts 221°
2026-05-04 17:37 24.81018 54.97086 2500 ft 228 kts 219°
2026-05-04 17:38 24.79749 54.96026 2498 ft 229 kts 219°
2026-05-04 17:38 24.78496 54.94979 2497 ft 228 kts 219°
2026-05-04 17:38 24.77233 54.93919 2488 ft 228 kts 219°
2026-05-04 17:38 24.75980 54.92866 2499 ft 227 kts 219°
2026-05-04 17:39 24.73461 54.90753 2489 ft 228 kts 219°
2026-05-04 17:39 24.72193 54.89693 2489 ft 228 kts 219°
2026-05-04 17:39 24.70930 54.88637 2483 ft 228 kts 219°
2026-05-04 17:40 24.69667 54.87580 2481 ft 228 kts 220°
2026-05-04 17:40 24.68408 54.86522 2483 ft 228 kts 220°
2026-05-04 17:40 24.67142 54.85463 2487 ft 229 kts 219°
2026-05-04 17:40 24.65874 54.84405 2480 ft 228 kts 220°
2026-05-04 17:41 24.64612 54.83345 2481 ft 228 kts 219°
2026-05-04 17:41 24.63356 54.82296 2488 ft 225 kts 219°
2026-05-04 17:41 24.62095 54.81243 2478 ft 229 kts 219°
2026-05-04 17:41 24.60826 54.80181 2485 ft 229 kts 220°
2026-05-04 17:42 24.59985 54.79471 2472 ft 231 kts 220°
2026-05-04 17:42 24.58287 54.78057 2470 ft 231 kts 219°
2026-05-04 17:42 24.57014 54.76995 2475 ft 229 kts 219°
2026-05-04 17:42 24.55751 54.75944 2477 ft 227 kts 219°
2026-05-04 17:43 24.54495 54.74894 2488 ft 227 kts 219°
2026-05-04 17:43 24.53639 54.74186 2500 ft 227 kts 219°
2026-05-04 17:43 24.52425 54.73166 2487 ft 207 kts 220°
2026-05-04 17:43 24.51353 54.72267 2495 ft 182 kts 218°
2026-05-04 17:44 24.50403 54.71492 2486 ft 159 kts 221°
2026-05-04 17:44 24.49571 54.70787 2491 ft 150 kts 221°
2026-05-04 17:44 24.48741 54.70092 2492 ft 150 kts 221°
2026-05-04 17:44 24.47922 54.69410 2508 ft 148 kts 222°
2026-05-04 17:45 24.47081 54.68703 2470 ft 155 kts 221°
2026-05-04 17:45 24.46246 54.68008 2496 ft 149 kts 220°
2026-05-04 17:45 24.45406 54.67307 2508 ft 155 kts 220°
2026-05-04 17:45 24.44524 54.66581 2506 ft 159 kts 220°
2026-05-04 17:46 24.43647 54.65847 2493 ft 153 kts 221°
2026-05-04 17:46 24.42811 54.65151 2505 ft 147 kts 221°
2026-05-04 17:46 24.42058 54.64523 2482 ft 123 kts 221°
2026-05-04 17:46 24.41384 54.63982 2457 ft 123 kts 222°
2026-05-04 17:47 24.40677 54.63360 2310 ft 135 kts 226°
2026-05-04 17:47 24.40249 54.62540 2141 ft 117 kts 257°
2026-05-04 17:47 24.39958 54.61736 1982 ft 110 kts 251°
2026-05-04 17:47 24.39668 54.60972 1874 ft 108 kts 253°
2026-05-04 17:48 24.39385 54.60212 1788 ft 112 kts 253°
2026-05-04 17:48 24.39086 54.59413 1672 ft 114 kts 253°
2026-05-04 17:48 24.38782 54.58595 1556 ft 117 kts 253°
2026-05-04 17:48 24.38477 54.57772 1425 ft 117 kts 252°
2026-05-04 17:49 24.38169 54.56948 1317 ft 116 kts 252°
2026-05-04 17:49 24.37859 54.56125 1210 ft 116 kts 253°
2026-05-04 17:49 24.37582 54.55403 1099 ft 96 kts 251°
2026-05-04 17:49 24.37334 54.54734 1002 ft 95 kts 252°
2026-05-04 17:50 24.37135 54.54042 911 ft 94 kts 271°
2026-05-04 17:50 24.37386 54.53405 811 ft 91 kts 312°
2026-05-04 17:50 24.37787 54.52887 724 ft 90 kts 308°
2026-05-04 17:50 24.38168 54.52336 635 ft 92 kts 307°
2026-05-04 17:51 24.38562 54.51791 543 ft 89 kts 308°
2026-05-04 17:51 24.38931 54.51268 487 ft 84 kts 307°
2026-05-04 17:51 24.39309 54.50764 478 ft 90 kts 307°
2026-05-04 17:51 24.39700 54.50190 449 ft 95 kts 308°
2026-05-04 17:52 24.40110 54.49626 394 ft 92 kts 304°
2026-05-04 17:52 24.40496 54.49081 335 ft 90 kts 311°
2026-05-04 17:52 24.40880 54.48547 260 ft 90 kts 308°
2026-05-04 17:52 24.41273 54.48010 195 ft 91 kts 309°
2026-05-04 17:53 24.41661 54.47462 110 ft 92 kts 308°
2026-05-04 17:53 24.42047 54.46911 42 ft 87 kts 308°
2026-05-04 17:53 24.42372 54.46454 22 ft 66 kts 309°
2026-05-04 17:53 24.42619 54.46113 21 ft 51 kts 308°
2026-05-04 17:54 24.42797 54.45867 18 ft 30 kts 309°
2026-05-04 17:54 24.42944 54.45653 19 ft 22 kts 301°
2026-05-04 17:54 24.42985 54.45506 20 ft 28 kts 280°
2026-05-04 17:54 24.43008 54.45344 21 ft 20 kts 279°
2026-05-04 17:55 24.42972 54.45211 22 ft 8 kts 205°
2026-05-04 17:55 24.42913 54.45181 19 ft 0 kts 206°